Flag for Germany Weather past 2 weeks in Weinheim, Baden-Württemberg, Germany

Now
79 °F

Passing clouds.


Feels Like: 79 °F
Forecast: 56 / 75 °F
Wind: 12 mph from Southwest

Location: Baden Wurttemberg - Neuostheim

Current Time: Jun 2, 2015 at 5:41:33 PM

Latest Report: Jun 2, 2015 at 4:50 PM


Visibility: N/A

Pressure: 30.01 "Hg

Humidity: 30%

Dew point: 45 °F

Location of WeinheimLocation

Historic Weather in Weinheim — Graph

°F

Weinheim temperature yesterday

Maximum temperature yesterday: 63 °F (at 5:20 AM)
Minimum temperature yesterday: 55 °F (at 9:20 AM)
Average temperature yesterday: 59 °F

Past Weeks' High & Low Weather Summary

 TemperatureHumidityPressure
High77 °F (Jun 2, 3:20 PM)94% (Jun 1, 8:20 AM)30.33 "Hg (Jun 1, 8:20 AM)
Low41 °F (May 22, 5:20 AM)25% (May 18, 6:20 PM)29.71 "Hg (May 18, 6:50 PM)
Average61 °F56%30.04 "Hg
* Reported May 18 4:20 PM — Jun 2 4:20 PM, Weinheim, Weather by CustomWeather, © 2015

Note: Actual official high and low records may vary slightly from our data, if they occured in-between our weather recording intervals... More about our weather records

Advertising

Weinheim weather history for previous 24 hours

 ConditionsComfort  
Time TempWeatherWind HumidityBarometerVisibility
4:20 PM
Tue, Jun 2
77 °FPassing clouds.14 mph32%30.01 "HgN/A
3:50 PM77 °FPassing clouds.15 mph28%30.01 "HgN/A
3:20 PM77 °FPassing clouds.10 mph32%30.01 "HgN/A
2:50 PM75 °FPassing clouds.13 mph34%30.01 "HgN/A
2:20 PM73 °FPassing clouds.13 mph38%30.01 "HgN/A
1:50 PM72 °FPassing clouds.14 mph41%30.04 "HgN/A
1:20 PM72 °FPassing clouds.13 mph44%30.04 "HgN/A
12:50 PM70 °FPassing clouds.13 mph46%30.04 "HgN/A
12:20 PM70 °FPartly sunny.12 mph50%30.04 "HgN/A
11:50 AM66 °FPartly sunny.13 mph64%30.04 "HgN/A
11:20 AM66 °FPassing clouds.9 mph64%30.04 "HgN/A
10:50 AM64 °FPassing clouds.10 mph68%30.04 "HgN/A
10:20 AM64 °FPassing clouds.9 mph73%30.04 "HgN/A
9:50 AM63 °FPassing clouds.8 mph77%30.04 "HgN/A
9:20 AM61 °FScattered clouds.7 mph77%30.04 "HgN/A
8:50 AM59 °FScattered clouds.8 mph82%30.04 "HgN/A
8:20 AM59 °FScattered clouds.7 mph82%30.04 "HgN/A
7:50 AM57 °FPassing clouds.7 mph88%30.04 "HgN/A
7:20 AM55 °FPassing clouds.7 mph94%30.04 "HgN/A
6:50 AM55 °FSunny.8 mph88%30.04 "Hg10 mi
5:20 AM54 °FPassing clouds.5 mph88%30.04 "HgN/A
2:50 AM54 °FClear.5 mph94%30.04 "Hg10 mi
2:20 AM54 °FClear.3 mph94%30.04 "Hg10 mi
1:50 AM55 °FPassing clouds.5 mph94%30.04 "HgN/A
12:50 AM54 °FPassing clouds.5 mph94%30.07 "HgN/A
12:20 AM54 °FClear.3 mph94%30.07 "Hg10 mi
11:50 PM
Mon, Jun 1
55 °FPassing clouds.5 mph88%30.04 "HgN/A
11:20 PM57 °FClear.3 mph82%30.04 "Hg10 mi
10:50 PM57 °FPassing clouds.7 mph77%30.04 "HgN/A
10:20 PM59 °FPassing clouds.6 mph77%30.04 "HgN/A
8:50 PM61 °FScattered clouds.8 mph72%30.04 "HgN/A
8:20 PM61 °FPartly sunny.8 mph72%30.04 "HgN/A
7:50 PM63 °FPartly sunny.7 mph59%30.04 "HgN/A
7:20 PM63 °FPartly sunny.6 mph73%30.04 "HgN/A
6:50 PM63 °FBroken clouds.7 mph73%30.04 "HgN/A
6:20 PM63 °FBroken clouds.7 mph68%30.04 "HgN/A
5:50 PM63 °FBroken clouds.5 mph68%30.04 "HgN/A
5:20 PM63 °FBroken clouds.7 mph68%30.07 "HgN/A
Weather by CustomWeather, © 2015

See weather overviewHow to use our weather pages